Regional Weather Roundup
Issued by NWS

Home | Current Version | Previous Version | Graphics & Text | Print | Product List | Glossary On
Versions: 1 2 3 4 5 6 7 8 9 10 11 12 13 14 15 16 17 18 19 20 21 22 23 24 25 26 27 28 29 30 31 32 33 34 35 36 37 38 39 40 41 42 43 44 45 46 47 48 49 50
000
ASUS43 KOAX 220202
RWRNE

WEATHER ROUNDUP FOR NEBRASKA
NATIONAL WEATHER SERVICE OMAHA NE
900 PM CDT MON MAY 21 2018

NOTES: SATELLITE DATA IS BEING USED TO AUGMENT CLOUD COVER ABOVE
       12000 FEET.
       "FAIR" INDICATES FEW OR NO CLOUDS BELOW 12,000 FEET WITH NO
       SIGNIFICANT WEATHER AND/OR OBSTRUCTIONS TO VISIBILITY.


NEZ001>004-019>022-054>056-220300-
NEBRASKA PANHANDLE

CITY           SKY/WX    TMP DP  RH WIND       PRES   REMARKS
SCOTTSBLUFF    CLOUDY    66  61  84 SE8       29.93F
ALLIANCE       CLOUDY    61  58  90 S6        29.94S
CHADRON        CLOUDY    67  58  72 SE8       29.90R
GORDON         FAIR      65  56  72 CALM      29.94R
KIMBALL        CLOUDY    62  56  81 E6        30.01S
SIDNEY         MOCLDY    63  56  78 NE8       29.98R
$$

NEZ057>060-069>072-079>082-220300-
SOUTHWEST NEBRASKA

CITY           SKY/WX    TMP DP  RH WIND       PRES   REMARKS
NORTH PLATTE   CLOUDY    68  62  81 SE5       29.92R
IMPERIAL       CLOUDY    70  60  70 E6        29.91R
LEXINGTON      CLOUDY    70  62  74 SE8       29.93R
MCCOOK         CLOUDY    72  60  66 SE10      29.90R
OGALLALA       MOCLDY    68  58  70 N5        29.93R
$$

NEZ005>010-023>029-035>040-094-220300-
NORTH CENTRAL NEBRASKA

CITY           SKY/WX    TMP DP  RH WIND       PRES   REMARKS
VALENTINE      CLEAR     69  56  62 SE7       29.92S
AINSWORTH      CLEAR     64  59  81 SE7       29.95R
BROKEN BOW     PTCLDY    67  60  78 E5        29.94R
O`NEILL        CLEAR     69  58  68 SE5       29.96R
ORD            PTCLDY    65  59  81 E5        29.94R
THEDFORD       CLOUDY    69  59  69 SE7       29.95R
$$

NEZ041-046>049-061>064-073>077-083>087-220300-
SOUTH CENTRAL NEBRASKA

CITY           SKY/WX    TMP DP  RH WIND       PRES   REMARKS
GRAND ISLAND   PTCLDY    68  59  73 E6        29.96S
AURORA         CLOUDY    69  62  78 E6        29.96S
HASTINGS       MOCLDY    71  59  65 SE8       29.96S
HEBRON         CLOUDY    71  57  62 S7        29.96S
HOLDREGE       CLOUDY    67  62  82 SE7       29.94R
KEARNEY        CLOUDY    69  60  73 SE10      29.95R
YORK           CLOUDY    66  63  88 CALM      29.97R
$$

NEZ011>018-030>034-042>045-220300-
NORTHEAST NEBRASKA

CITY           SKY/WX    TMP DP  RH WIND       PRES   REMARKS
NORFOLK        CLOUDY    68  57  68 S6        29.95S
ALBION         CLOUDY    67  61  79 CALM      29.97R
COLUMBUS       CLOUDY    69  58  67 CALM      29.97F
FREMONT        PTCLDY    69  59  71 CALM      29.97S
TEKAMAH        CLEAR     66  60  81 E6        29.96R
WAYNE          CLOUDY    68  56  66 CALM      29.95S
$$

NEZ050>053-065>068-078-088>093-220300-
SOUTHEAST NEBRASKA

CITY           SKY/WX    TMP DP  RH WIND       PRES   REMARKS
LINCOLN        PTCLDY    69  57  65 NE6       29.97R
OMAHA EPPLEY   MOCLDY    70  57  63 E6        29.96S
BEATRICE       CLOUDY    72  58  60 S5        29.96S
FALLS CITY     CLEAR     72  53  51 NE3       29.96R
NEBRASKA CITY  PTCLDY    74  53  48 CALM      29.97S
$$

NEZ044-045-051>053-067-220300-
OMAHA AREA

CITY           SKY/WX    TMP DP  RH WIND       PRES   REMARKS
OMAHA EPPLEY   MOCLDY    70  57  63 E6        29.96S
FREMONT        PTCLDY    69  59  71 CALM      29.97S
MILLARD        CLOUDY    69  56  64 CALM      29.97R
OFFUTT AFB     CLEAR     65  57  75 CALM      29.95S
WAHOO          FAIR      71  53  52 E3        29.97S
$$




USA.gov is the U.S. government's official web portal to all federal, state and local government web resources and services.